Regional Weather Roundup
Issued by NWS

Home | Current Version | Previous Version | Graphics & Text | Print | Product List | Glossary On
Versions: 1 2 3 4 5 6 7 8 9 10 11 12 13 14 15 16 17 18 19 20 21 22 23 24 25 26 27 28 29 30 31 32 33 34 35 36 37 38 39 40 41 42 43 44 45 46 47 48 49 50
000
ASUS43 KLOT 070400
RWRIL

ILLINOIS REGIONAL WEATHER ROUNDUP
NATIONAL WEATHER SERVICE CHICAGO/ROMEOVILLE IL
1100 PM CDT WED MAY 06 2015

NOTE: "FAIR" INDICATES FEW OR NO CLOUDS BELOW 12,000 FEET WITH NO
SIGNIFICANT WEATHER AND/OR OBSTRUCTIONS TO VISIBILITY.

* THESE STATIONS ARE NOT UNDER NWS QUALITY CONTROL. THEY ALSO MAY NOT
  REPORT WEATHER SUCH AS PRECIPITATION OR FOG.

ILZ001-002-007-009-015-016-024-070500-
NORTHWEST ILLINOIS

CITY           SKY/WX    TMP DP  RH WIND       PRES   REMARKS
MOLINE         PTCLDY    63  59  87 CALM      29.99S
STERLING*      CLEAR     64  57  77 SE6       30.02F
$$

ILZ003-004-008-010-011-017-018-070500-
NORTH CENTRAL ILLINOIS

CITY           SKY/WX    TMP DP  RH WIND       PRES   REMARKS
ROCKFORD       PTCLDY    65  57  75 SE8       30.05R
$$

ILZ005-006-012>014-019>023-070500-
NORTHEAST ILLINOIS

CITY           SKY/WX    TMP DP  RH WIND       PRES   REMARKS
CHICAGO-OHARE  PTCLDY    56  50  80 NE6       30.07S
CHICAGO-MIDWAY PTCLDY    60  52  74 E3        30.07F
AURORA         PTCLDY    63  56  78 E6        30.06S HAZE
WAUKEGAN       MOCLDY    46  46 100 NE3       30.08S FOG
DUPAGE AIRPORT PTCLDY    62  56  80 E5        30.06S HAZE
WHEELING       MOCLDY    50  47  89 CALM      30.09F
NORTHERLY ISL    N/A     51  49  92 MISG        N/A
$$

LMZ740>746-070500-
SOUTHERN LAKE MICHIGAN

STATION/POSITION SKY/WX   TEMP    WIND        PRES    VSBY  WAVE
                          AIR SEA DIR/SP/G                  HT/PER
                          (F)     (DEG/KT/KT) (MB)    (MI)  (FT/S)
HARRISON CRIB              46     340/  6/  7   N/A
BURNHAM HARBOR             50      20/  2/  5   N/A
CALUMET HARBOR             49     350/  3/  5   N/A
BURNS HARBOR               55     250/  8/  9 1019.0R
MICHIGAN CITY              71     110/  6/  7   N/A
MICHIGAN CITY 6N           56 53   90/  6/  6   N/A           1
ST. JOSEPH                 65 52  130/  8/ 10   N/A           1
$$

ILZ025>027-034>036-040-047-049-050-058-095>099-070500-
WEST-CENTRAL ILLINOIS

CITY           SKY/WX    TMP DP  RH WIND       PRES   REMARKS
QUINCY         PTCLDY    70  52  52 S7        29.99S
$$

ILZ028>032-037-038-041>044-048-051>054-059>061-070500-
CENTRAL ILLINOIS

CITY           SKY/WX    TMP DP  RH WIND       PRES   REMARKS
DECATUR        CLEAR     71  53  52 S8        30.06S
PEORIA         CLEAR     75  53  46 S10       30.02F
SPRINGFIELD    CLEAR     72  54  53 S10       30.04S
TAYLORVILLE    NOT AVBL
$$

ILZ033-039-045-046-055>057-062-063-070500-
EAST-CENTRAL ILLINOIS

CITY           SKY/WX    TMP DP  RH WIND       PRES   REMARKS
CHAMPAIGN      PTCLDY    69  52  54 SE7       30.07S
MATTOON        CLEAR     69  54  58 S5        30.06S
$$

ILZ079-100>102-070500-
SOUTHWEST ILLINOIS

CITY           SKY/WX    TMP DP  RH WIND       PRES   REMARKS
CAHOKIA*       PTCLDY    70  55  59 SE5       30.02S
$$

ILZ064>066-069>071-074>076-080>082-084>086-088>090-092>094-070500-
SOUTH-CENTRAL ILLINOIS

CITY           SKY/WX    TMP DP  RH WIND       PRES   REMARKS
CARBONDALE     CLEAR     65  55  70 SE5       30.05S
MT. VERNON     CLEAR    N/A N/A N/A CALM      30.07S
$$

ILZ067-068-072-073-078-083-087-091-070500-
SOUTHEAST ILLINOIS

CITY           SKY/WX    TMP DP  RH WIND       PRES   REMARKS
LAWRENCEVILLE  CLEAR     67  57  70 SE3       30.08S
$$

ABBREVIATIONS USED IN REMARKS
   TC - TEMPERATURE IN CELSIUS
  WCI - WIND CHILL INDEX
   HX - HEAT INDEX
  VSB - VISIBILITY
$$



USA.gov is the U.S. government's official web portal to all federal, state and local government web resources and services.